This is the latest recevied weather packets stored in our database for station/object W4NRG-1. If no packets are shown the sender has not sent any weather packets the latest 1 day(s).
| Time | Temp. | Humidity | Pressure | Rain* | Wind** | Luminosity | Snow |
|---|---|---|---|---|---|---|---|
| 1778011750 | 29.44° C | 33% | 1011.7 hPa | 0 mm | 1.79 m/s, 332° | - | - |
| 1778011447 | 28.89° C | 33% | 1012 hPa | 0 mm | 1.79 m/s, 331° | - | - |
| 1778011142 | 28.89° C | 32% | 1012.1 hPa | 0 mm | 4.92 m/s, 303° | - | - |
| 1778010840 | 29.44° C | 32% | 1012.1 hPa | 0 mm | 2.24 m/s, 310° | - | - |
| 1778010537 | 28.89° C | 33% | 1012.2 hPa | 0 mm | 1.79 m/s, 70° | - | - |
| 1778010234 | 28.89° C | 33% | 1012.3 hPa | 0 mm | 1.34 m/s, 215° | - | - |
| 1778009934 | 29.44° C | 34% | 1012.1 hPa | 0 mm | 0.89 m/s, 200° | - | - |
| 1778009633 | 29.44° C | 35% | 1012.5 hPa | 0 mm | 1.34 m/s, 299° | - | - |
| 1778009330 | 29.44° C | 34% | 1012.5 hPa | 0 mm | 1.34 m/s, 233° | - | - |
| 1778009028 | 29.44° C | 33% | 1012.9 hPa | 0 mm | 2.68 m/s, 124° | - | - |
| 1778008725 | 28.89° C | 34% | 1012.7 hPa | 0 mm | 1.79 m/s, 80° | - | - |
| 1778008424 | 28.89° C | 34% | 1012.9 hPa | 0 mm | 1.79 m/s, 337° | - | - |
| 1778008120 | 29.44° C | 33% | 1012.9 hPa | 0 mm | 3.13 m/s, 55° | - | - |
| 1778007816 | 28.89° C | 35% | 1012.7 hPa | 0 mm | 1.79 m/s, 27° | - | - |
| 1778007511 | 28.89° C | 34% | 1012.7 hPa | 0 mm | 2.24 m/s, 46° | - | - |
| 1778007208 | 28.89° C | 34% | 1013.1 hPa | 0 mm | 1.79 m/s, 82° | - | - |
| 1778006904 | 29.44° C | 35% | 1013 hPa | 0 mm | 0.89 m/s, 337° | - | - |
| 1778006601 | 28.89° C | 37% | 1013.2 hPa | 0 mm | 1.79 m/s, 298° | - | - |
| 1778006298 | 28.89° C | 35% | 1013.2 hPa | 0 mm | 1.79 m/s, 298° | - | - |
| 1778005995 | 28.89° C | 35% | 1013.1 hPa | 0 mm | 0.89 m/s, 273° | - | - |
| 1778005692 | 28.89° C | 35% | 1013.1 hPa | 0 mm | 0.89 m/s, 336° | - | - |
| 1778005389 | 28.89° C | 36% | 1013.5 hPa | 0 mm | 2.24 m/s, 347° | - | - |
| 1778005085 | 28.33° C | 33% | 1013.2 hPa | 0 mm | 3.13 m/s, 51° | - | - |
| 1778004783 | 28.33° C | 37% | 1013.3 hPa | 0 mm | 1.79 m/s, 3° | - | - |
| 1778004479 | 28.33° C | 39% | 1013.2 hPa | 0 mm | 0.45 m/s, 68° | - | - |
* Rain latest hour (hover to see other rain measurements)
** Current wind speed in m/s (hover to see current wind gust speed)